This is the latest recevied weather packets stored in our database for station/object K4KMJ. If no packets are shown the sender has not sent any weather packets the latest 10 day(s).
| Time | Temp. | Humidity | Pressure | Rain* | Wind** | Luminosity | Snow |
|---|---|---|---|---|---|---|---|
| 1788450085 | 26.11° C | 99% | 1018.1 hPa | 0 mm | - | 256 W/m² | - |
| 1788449780 | 26.11° C | 99% | 1017.9 hPa | 0 mm | - | 247 W/m² | - |
| 1788449476 | 26.11° C | 99% | 1017.9 hPa | 0 mm | - | 234 W/m² | - |
| 1788449172 | 26.11° C | 99% | 1018 hPa | 0 mm | - | 226 W/m² | - |
| 1788448868 | 26.11° C | 99% | 1017.8 hPa | 0 mm | - | 241 W/m² | - |
| 1788448567 | 26.11° C | 99% | 1017.7 hPa | 0 mm | - | 289 W/m² | - |
| 1788448262 | 26.11° C | 99% | 1017.8 hPa | 0 mm | - | 346 W/m² | - |
| 1788447956 | 26.11° C | 99% | 1017.7 hPa | 0 mm | - | 489 W/m² | - |
| 1788447652 | 25.56° C | 99% | 1018 hPa | 0 mm | - | 446 W/m² | - |
| 1788447351 | 25.56° C | 99% | 1017.8 hPa | 0 mm | - | 233 W/m² | - |
| 1788447047 | 25.56° C | 99% | 1018.2 hPa | 0 mm | - | 193 W/m² | - |
| 1788446745 | 25.56° C | 99% | 1017.9 hPa | 0 mm | - | 143 W/m² | - |
| 1788446442 | 25° C | 99% | 1017.9 hPa | 0 mm | - | 127 W/m² | - |
| 1788446138 | 25° C | 99% | 1017.7 hPa | 0 mm | - | 130 W/m² | - |
| 1788445833 | 25° C | 99% | 1017.9 hPa | 0 mm | - | 141 W/m² | - |
| 1788445528 | 25° C | 99% | 1017.7 hPa | 0.51 mm | - | 146 W/m² | - |
| 1788445226 | 25° C | 99% | 1017.7 hPa | 0.51 mm | - | 132 W/m² | - |
| 1788444921 | 25° C | 99% | 1017.6 hPa | 0 mm | - | 90 W/m² | - |
| 1788444616 | 25° C | 99% | 1017.7 hPa | 0 mm | - | 72 W/m² | - |
| 1788444311 | 24.44° C | 99% | 1017.7 hPa | 0 mm | - | 85 W/m² | - |
| 1788444007 | 24.44° C | 99% | 1017.7 hPa | 0.51 mm | - | 80 W/m² | - |
| 1788443702 | 24.44° C | 99% | 1017.6 hPa | 0.51 mm | - | 65 W/m² | - |
| 1788443397 | 24.44° C | 99% | 1017.6 hPa | 0.51 mm | - | 59 W/m² | - |
| 1788443096 | 24.44° C | 99% | 1017.7 hPa | 0.51 mm | - | 57 W/m² | - |
| 1788442793 | 24.44° C | 99% | 1017.3 hPa | 1.27 mm | - | 57 W/m² | - |
* Rain latest hour (hover to see other rain measurements)
** Current wind speed in m/s (hover to see current wind gust speed)